RH
100 92 100 100 92 100 100 100 99 74 77 60 75 81 63 56 48 54 56 71 81 88 88 88 87 74 59 40 33 24 26 33 32 36 50 84 72 62 57 51 50 45 43 36
100 100 100 100 100 100 92 100 95 91 88 88 84 65 59 49 53 68 64 77 80 79 88 84 87 77 64 40 34 24 28 33 32 36 45 63 82 83 79 60 44 52 50 50
100 100 100 100 100 100 87 91 100 100 100 71 62 48 49 49 84 73 75 85 77 73 79 86 87 76 67 37 31 31 32 34 34 33 38 48 68 71 70 77 69 60 46 42
67 94 85 76 82 86 100 100 74 88 83 65 51 56 47 61 86 80 90 74 60 69 70 88 87 76 62 32 30 30 36 35 38 39 35 50 72 75 86 81 87 69 60 58
78 75 80 79 94 89 85 100 78 67 61 54 66 52 54 72 73 76 60 50 59 60 71 84 77 70 59 47 30 25 25 36 38 34 32 48 64 90 98 86 81 63 52 54
72 74 66 81 68 78 85 91 72 64 68 62 89 62 55 45 51 47 41 54 51 46 47 78 77 62 86 70 41 23 21 23 25 26 30 41 38 46 100 87 77 59 55 60
61 69 69 69 68 67 64 71 68 59 67 72 72 57 38 33 34 38 43 37 26 23 62 57 72 56 59 86 60 33 24 24 23 27 29 34 63 99 98 96 74 54 66 65
63 57 52 52 51 54 51 63 62 59 64 61 60 43 31 32 33 36 31 19 11 20 49 33 72 84 61 50 81 72 39 27 37 31 29 38 63 99 100 100 91 85 63 75
58 40 37 46 55 45 48 42 48 43 48 40 41 37 28 34 32 25 13 10 10 19 20 19 92 77 75 68 45 59 44 36 29 28 28 50 58 95 100 100 81 86 77 90
57 52 41 36 41 50 50 51 37 34 36 38 39 32 33 33 32 21 12 11 11 13 13 21 99 79 80 89 64 53 59 40 40 29 37 48 58 97 100 100 90 92 92 90
86 67 71 47 60 53 47 41 33 33 42 43 33 30 41 33 26 20 14 11 11 20 17 40 100 87 98 95 51 42 58 38 43 40 62 56 63 100 100 100 96 100 98 95
100 100 83 89 74 58 44 57 52 49 49 42 39 42 40 33 25 18 11 10 14 24 13 80 100 100 100 92 47 49 48 39 73 100 79 48 84 100 100 100 100 100 98 99
100 100 100 100 92 76 60 62 67 63 51 44 38 30 30 24 18 12 9 11 16 14 24 69 100 100 100 85 57 45 39 96 100 91 39 87 94 100 100 100 100 100 100 100
100 98 100 100 100 100 87 84 65 64 67 24 17 12 10 10 9 9 10 10 12 12 20 77 100 100 93 56 56 44 95 100 87 40 55 85 77 100 100 100 100 100 100 100
37 57 84 84 85 89 86 77 72 59 32 16 14 11 10 9 10 10 11 11 12 18 57 84 100 88 64 50 49 99 100 96 43 53 93 66 99 100 100 100 100 100 100 100
19 29 24 32 47 60 67 62 40 26 17 14 12 11 10 10 11 13 12 12 19 33 58 100 96 56 61 65 94 100 90 43 39 90 74 78 100 100 100 100 100 100 100 99
16 16 17 19 18 20 27 27 34 22 15 13 12 10 10 12 12 12 14 38 46 29 38 94 83 56 57 94 99 100 59 52 96 100 64 99 100 100 100 100 100 100 100 100
16 17 16 16 16 16 20 16 16 16 14 14 13 13 13 13 14 16 36 72 52 50 80 91 57 61 64 89 76 68 83 91 72 56 98 100 100 100 100 100 100 100 99 83
16 15 16 19 21 19 21 20 18 15 15 13 14 14 15 16 16 28 72 100 100 100 80 75 74 100 94 82 99 59 60 64 96 100 100 100 100 100 98 81 62 48 45 44
32 44 32 33 25 23 28 22 18 19 17 16 15 17 20 21 28 86 100 96 100 97 44 79 100 100 95 71 72 100 100 100 100 100 100 100 100 100 82 70 55 43 44 52
62 54 52 69 61 58 66 40 25 20 25 18 23 40 41 38 54 76 99 100 100 82 43 75 100 84 100 100 100 100 98 100 100 100 100 100 100 100 87 72 54 46 50 55
69 69 51 55 55 87 61 49 42 36 31 26 36 56 49 49 63 75 100 100 100 93 89 87 100 100 100 100 100 100 100 100 100 100 100 100 86 67 55 47 49 48 54 54
75 90 100 100 89 54 39 34 34 34 31 38 66 79 73 71 89 82 70 56 81 100 96 99 100 100 100 100 100 100 100 100 100 100 85 63 43 41 43 42 45 50 47 47
100 100 100 96 72 45 37 33 35 52 66 89 100 84 100 100 100 100 100 100 100 100 100 88 89 100 100 100 100 100 99 97 83 65 46 41 48 56 60 63 60 57 46 38
100 100 100 88 61 48 56 59 100 100 100 100 92 97 100 100 100 100 100 100 97 100 100 100 100 84 69 100 100 100 89 71 62 39 39 44 54 60 53 54 62 45 42 34
100 100 100 90 88 100 100 86 88 100 100 100 100 100 100 100 100 100 100 100 100 100 78 65 53 64 98 100 98 86 70 43 34 38 41 61 69 68 62 53 43 46 31 25
Wind_Speed
68 58 64 68 61 62 63 65 70 66 67 66 66 68 69 74 76 78 83 81 82 82 80 73 59 48 44 44 46 41 33 33 36 37 44 41 43 44 43 44 43 44 45 44
73 67 72 73 70 68 71 71 73 70 67 65 68 73 78 81 83 83 84 83 83 79 76 68 51 47 44 44 46 43 39 36 33 40 41 42 48 46 48 47 48 48 51 52
82 74 76 74 75 74 72 71 75 72 70 69 74 77 83 85 85 86 83 84 83 77 69 62 47 45 42 40 44 40 40 37 34 38 39 39 43 45 47 46 49 50 52 56
78 75 80 78 75 77 73 74 76 76 77 74 78 79 81 85 86 87 83 84 76 71 65 56 46 43 40 38 44 36 34 35 34 35 38 40 46 52 56 52 50 53 58 60
83 82 82 81 79 78 78 80 79 80 80 77 80 82 84 88 85 83 78 73 68 65 61 52 47 40 37 42 40 36 38 35 33 36 38 43 50 58 62 57 53 57 60 63
91 89 87 84 84 82 84 84 85 86 86 84 85 84 77 72 69 72 71 62 60 60 56 49 46 39 39 43 43 40 42 40 37 37 37 40 44 50 63 62 63 65 65 68
98 95 92 89 90 90 89 90 90 89 88 85 86 75 69 68 66 63 57 56 56 56 50 49 48 42 42 42 44 42 43 39 39 37 37 37 47 57 60 61 66 69 70 71
92 92 90 88 89 88 87 88 87 87 83 74 71 68 65 59 54 52 53 52 52 53 50 49 47 45 45 46 46 47 47 41 41 41 38 44 53 61 66 66 69 70 72 73
90 81 84 81 82 77 78 78 79 73 70 66 65 63 58 47 44 47 49 51 51 52 48 49 48 51 51 49 51 48 45 44 44 46 40 49 54 64 68 63 74 73 74 74
91 88 87 86 79 78 77 78 72 65 63 62 57 51 43 39 44 46 52 54 54 52 49 52 50 53 54 53 52 49 49 46 45 47 49 55 60 67 71 69 76 76 77 78
94 93 90 85 81 77 72 70 66 63 59 53 50 47 45 48 45 49 53 58 57 52 51 53 53 56 57 58 54 49 46 47 49 52 58 64 66 72 74 72 76 79 79 79
77 81 81 78 77 73 68 61 60 58 56 53 48 47 54 56 55 55 56 57 54 51 53 53 56 57 60 60 55 47 46 47 55 62 64 65 70 72 74 74 80 82 80 80
81 75 67 65 65 62 64 61 58 56 57 56 55 54 57 59 58 57 57 56 53 52 50 52 56 59 59 59 53 48 45 54 59 62 63 69 70 73 75 75 81 82 81 83
90 83 79 76 67 60 57 60 63 61 59 60 58 57 55 56 56 57 58 58 56 56 52 53 56 57 57 55 52 50 56 60 60 61 65 73 72 76 77 80 85 84 83 88
95 92 89 87 84 79 74 74 68 63 63 64 63 59 61 60 62 61 59 61 60 54 53 55 57 58 54 50 48 54 58 59 60 64 72 72 75 77 81 86 86 84 88 93
94 94 92 92 88 85 84 77 73 70 68 69 67 65 66 68 66 65 65 63 54 52 55 55 56 55 54 50 52 56 58 61 65 71 73 74 75 81 86 87 87 89 94 97
101 95 92 92 92 88 84 79 81 75 72 70 68 69 68 70 70 71 68 55 54 54 55 55 56 54 52 54 57 59 60 66 68 73 79 77 85 86 90 88 90 97 98 100
102 101 97 93 91 87 85 90 83 78 75 72 69 73 72 70 65 60 59 59 58 57 58 58 56 55 55 60 63 67 70 73 76 78 78 86 87 89 89 94 98 98 101 104
104 106 101 92 88 86 86 82 84 81 78 77 71 72 67 60 61 55 57 61 61 61 60 58 56 59 63 65 64 68 73 74 75 79 84 83 86 89 95 98 99 104 105 106
88 84 89 85 88 85 76 82 84 77 73 71 70 63 57 55 56 59 62 64 64 62 60 58 59 64 66 69 69 71 71 78 82 80 83 88 91 94 97 100 103 108 108 106
73 76 71 63 68 62 57 58 53 57 54 61 54 48 51 53 60 64 65 65 60 60 62 62 65 67 71 74 76 79 81 83 85 89 91 92 96 100 101 103 104 106 108 109
63 61 62 60 62 55 55 54 47 53 49 49 48 53 53 54 61 64 63 63 61 61 63 68 67 70 74 77 80 83 84 85 86 90 93 97 101 102 104 105 105 107 109 114
52 48 46 52 59 63 56 53 51 51 51 49 53 58 61 61 62 62 64 65 65 65 67 69 69 70 72 75 77 82 85 90 92 96 100 103 107 108 107 107 111 111 112 111
54 55 60 60 53 48 49 51 52 50 52 55 59 62 66 64 67 66 65 68 70 73 75 76 75 76 82 85 86 88 92 97 97 99 102 103 104 106 105 111 112 114 115 112
62 63 60 59 50 48 47 50 55 60 62 60 64 65 67 68 70 73 76 75 77 76 77 80 83 88 91 92 93 91 95 99 102 105 97 102 101 100 102 105 110 106 105 101
65 60 59 51 54 50 52 55 57 61 66 70 66 67 67 68 66 69 75 79 82 81 83 84 85 91 93 94 96 100 102 105 101 96 95 107 107 107 104 100 101 105 101 95
Wind_Direction
268 270 274 276 283 283 289 293 292 295 298 298 299 304 309 311 311 314 316 318 319 323 324 325 324 320 318 321 323 323 325 324 336 332 334 343 343 342 346 349 345 353 347 342
270 273 274 280 281 286 285 285 288 291 291 295 299 304 308 310 311 312 314 316 318 320 320 320 320 318 317 320 320 321 319 320 323 320 328 342 348 342 343 341 345 346 346 348
266 270 270 274 276 278 282 284 282 286 291 293 298 302 304 308 311 310 313 313 317 317 316 316 316 314 313 315 318 317 314 313 318 316 326 335 347 342 341 338 336 340 343 345
261 265 266 268 273 277 276 281 283 289 290 293 298 300 302 305 307 308 311 313 314 314 311 311 312 312 310 311 315 313 315 312 314 319 327 336 347 347 347 342 335 336 338 341
263 262 265 269 272 272 274 281 283 285 290 293 295 295 302 303 305 305 310 312 311 308 308 309 310 310 305 309 309 307 310 317 323 323 325 336 346 344 344 344 339 340 339 338
261 261 264 268 269 273 275 278 280 282 285 289 292 296 301 303 304 304 309 306 305 304 304 307 307 306 304 302 305 305 309 313 316 321 324 336 335 341 340 343 342 337 337 340
257 262 264 267 268 273 275 277 279 283 285 288 293 298 299 301 304 305 304 303 304 304 300 304 303 305 303 299 301 308 310 310 314 319 324 331 341 343 336 335 335 337 338 339
259 261 264 269 269 272 276 277 281 285 285 290 290 295 305 299 299 300 297 299 304 301 299 301 303 305 303 302 302 299 302 313 316 320 325 328 336 336 334 332 337 335 337 338
261 261 265 266 267 271 274 278 279 282 284 284 291 297 301 293 298 297 301 302 305 297 297 300 301 303 304 306 306 298 297 308 315 323 322 328 333 333 330 332 334 335 335 336
262 263 266 266 267 272 275 276 278 280 279 284 289 291 289 292 298 300 304 305 305 300 301 301 301 302 304 307 308 301 297 301 312 319 323 327 329 329 329 330 332 333 334 335
262 263 266 268 270 271 273 273 276 278 279 282 285 286 290 293 297 302 302 302 301 298 302 298 298 301 304 306 307 301 298 303 308 316 318 320 325 326 328 329 329 332 332 331
254 260 264 267 268 270 270 272 274 274 276 280 282 287 290 295 301 301 301 300 297 293 297 294 297 300 302 304 305 303 300 304 313 313 313 317 321 324 326 326 327 330 329 328
253 251 256 261 263 263 265 266 270 273 276 282 285 288 292 293 297 298 301 300 296 295 288 291 292 295 299 302 302 303 304 310 310 311 314 317 321 322 323 323 326 326 326 326
253 253 256 259 258 259 261 263 269 277 280 281 285 287 288 292 297 299 298 299 295 295 289 286 289 293 297 299 301 303 308 309 310 314 315 317 319 319 319 323 323 323 323 323
254 256 258 260 263 265 268 271 271 272 276 282 282 286 289 292 297 299 299 295 295 292 283 286 288 293 294 295 296 300 304 307 309 312 311 315 316 315 318 319 321 319 320 322
256 256 257 260 262 266 268 271 273 276 276 279 282 285 289 296 299 299 297 298 289 281 283 287 290 293 293 293 292 297 302 305 306 307 311 311 312 314 317 318 317 316 319 319
258 259 260 261 263 265 268 271 271 274 277 279 282 285 290 293 295 297 298 286 280 282 282 284 289 290 286 288 295 300 298 300 302 305 307 309 312 313 314 314 314 316 317 318
257 259 260 262 265 268 270 271 275 276 278 282 286 289 291 293 295 295 286 279 280 285 286 285 285 283 283 292 295 295 300 302 303 306 307 308 310 311 311 314 316 316 317 317
256 258 261 264 266 269 274 275 276 278 280 281 285 288 290 292 293 283 275 274 277 283 286 287 292 293 295 295 295 294 297 299 303 305 307 307 308 311 313 314 316 316 316 316
249 252 258 261 263 266 265 271 276 278 283 285 285 287 285 287 275 271 274 275 276 280 286 287 290 290 290 292 294 298 300 299 302 304 304 305 308 311 313 314 313 313 314 314
247 252 254 252 257 264 264 266 272 279 269 283 283 266 268 271 270 271 272 277 281 282 282 282 286 291 297 297 295 296 298 298 298 300 301 303 305 309 310 311 312 312 312 312
248 247 253 251 252 251 263 264 265 270 277 273 269 261 263 265 264 267 273 277 278 280 282 285 288 289 290 292 293 293 293 295 297 300 302 305 307 308 309 310 311 309 309 309
240 245 236 232 240 253 262 260 263 265 270 265 256 258 260 264 264 266 268 271 275 276 280 282 285 286 287 288 289 292 294 298 301 303 305 306 306 306 306 308 309 308 307 308
230 232 229 245 252 253 250 255 260 258 256 252 254 260 259 263 266 266 270 269 271 273 276 280 281 283 286 290 292 294 296 300 303 305 307 309 309 307 307 308 308 310 308 307
225 224 237 245 255 252 245 245 244 245 252 250 254 260 264 266 267 266 272 274 275 276 278 281 285 286 287 287 288 290 292 296 297 298 301 306 307 307 305 305 306 304 303 303
220 234 248 254 242 242 245 243 242 245 249 252 257 261 263 265 264 267 270 273 277 280 282 284 288 287 287 288 291 289 291 294 298 300 305 310 309 306 303 303 301 300 301 302